Terug naar catalogus

COSMOS 2251 DEB

ActiefLEO
NORAD 40802·DEBRIS·🇷🇺 Russia

Gelanceerd Jun 16, 1993 vanaf Plesetsk Cosmodrome

Loading…

Volgende Passages (komende 24 uur)

TLE

VersSource: Space-Track

Epoch: Sep 14, 2026, 11:17 UTC

1 40802U 93036BWF 26257.47044543  .00001937  00000-0  25432-3 0  9997
2 40802  74.0413 330.9442 0060643 356.0409   4.0278 14.79763016684852

Volg COSMOS 2251 DEB in realtime met AllMySat

Download on the App Store